This demonstration page uses our WeatherBlox Daily Observations layout. Learn more.

Left ArrowRight Arrow

38.88101, -77.10428

Hourly Observations for May 13, 2022

Temp ( °F °C ) Dew Point ( °F °C ) Humidity (%) Winds ( mph kmh ) Pressure ( in mb ) Visibility ( mi km ) Precip ( " mm )
12:00 am 00:00 Cloudy 65 18.3 60 15.6 84 84 E 5 7 30.23 1024 10 16 0.00 0.00
12:52 am 00:52 Cloudy 65 18.3 60 15.6 84 84 ENE 8 13 30.22 1023 10 16 0.00 0.00
1:47 am 01:47 Cloudy 64 18 61 16 88 88 ENE 9 15 30.20 1023 10 16 0.00 0.00
1:52 am 01:52 Cloudy 65 18.3 60 15.6 84 84 ENE 10 17 30.20 1023 10 16 0.00 0.00
2:23 am 02:23 Cloudy 64 17.8 60 15.6 87 87 NE 7 11 30.20 1023 10 16 0.00 0.00
2:52 am 02:52 Cloudy with Drizzle 64 17.8 60 15.6 87 87 NE 8 13 30.19 1022 6 10 0.00 0.00
3:52 am 03:52 Cloudy with Drizzle 64 17.8 61 16.1 90 90 NE 8 13 30.18 1022 4 6 0.00 0.00
4:52 am 04:52 Cloudy with Drizzle 64 17.8 61 16.1 90 90 NE 7 11 30.18 1022 5 8 0.00 0.00
5:41 am 05:41 Cloudy with Heavy Rain 64 17.8 61 16.1 90 90 NE 8 13 30.18 1022 2 3 0.07 1.78
5:48 am 05:48 Cloudy with Light Rain 64 18 61 16 88 88 NE 10 17 30.19 1022 4 6 0.14 3.56
5:52 am 05:52 Cloudy with Light Rain 64 17.8 61 16.1 90 90 NE 9 15 30.19 1022 4 6 0.14 3.56
6:50 am 06:50 Cloudy 64 18 61 16 88 88 NE 12 19 30.18 1022 10 16 0.00 0.00
6:52 am 06:52 Cloudy 64 17.8 61 16.1 90 90 NE 10 17 30.18 1022 10 16 0.00 0.00
7:13 am 07:13 Cloudy 64 17.8 61 16.1 90 90 NE 10 17 30.19 1022 10 16 0.00 0.00
7:52 am 07:52 Cloudy with Light Rain 64 17.8 61 16.1 90 90 NE 9 15 30.20 1023 5 8 0.00 0.00
8:27 am 08:27 Cloudy with Drizzle 64 17.8 61 16.1 90 90 NE 10 17 30.22 1023 2 3 0.00 0.00
8:42 am 08:42 Cloudy with Drizzle 65 18.3 62 16.7 90 90 NE 10 17 30.21 1023 4 6 0.00 0.00
8:52 am 08:52 Cloudy 65 18.3 62 16.7 90 90 NE 13 20 30.20 1023 7 11 0.00 0.00
9:23 am 09:23 Cloudy 66 18.9 62 16.7 87 87 NNE 6 9 30.20 1023 10 16 0.00 0.00
9:52 am 09:52 Cloudy 66 18.9 61 16.1 84 84 NE 9 15 30.19 1022 10 16 0.00 0.00
10:52 am 10:52 Cloudy 67 19.4 62 16.7 84 84 NE 10 17 30.20 1023 10 16 0.00 0.00
11:25 am 11:25 Cloudy 67 19.4 62 16.7 84 84 NE 9 15 30.21 1023 10 16 0.00 0.00
11:52 am 11:52 Cloudy 68 20 63 17.2 84 84 NE 10 17 30.20 1023 9 14 0.00 0.00
12:01 pm 12:01 Cloudy with Haze 68 20 63 17.2 84 84 NE 9 15 30.21 1023 6 10 0.00 0.00
12:52 pm 12:52 Cloudy 67 19.4 63 17.2 87 87 ENE 8 13 30.19 1022 9 14 0.00 0.00
1:52 pm 13:52 Cloudy 70 21.1 64 17.8 82 82 NE 8 13 30.18 1022 10 16 0.00 0.00
2:00 pm 14:00 Cloudy 69 20.6 63 17.2 81 81 E 7 11 30.19 1022 10 16 0.00 0.00
2:52 pm 14:52 Cloudy 71 21.7 64 17.8 79 79 ESE 8 13 30.17 1022 10 16 0.00 0.00
3:12 pm 15:12 Cloudy 71 21.7 64 17.8 79 79 SE 5 7 30.17 1022 10 16 0.00 0.00
3:52 pm 15:52 Cloudy 71 21.7 64 17.8 79 79 S 7 11 30.16 1021 10 16 0.00 0.00
4:33 pm 16:33 Cloudy 75 23.9 65 18.3 71 71 SSE 8 13 30.13 1020 10 16 0.00 0.00
4:52 pm 16:52 Mostly Cloudy 75 23.9 65 18.3 71 71 SE 5 7 30.12 1020 10 16 0.00 0.00
5:52 pm 17:52 Mostly Cloudy 74 23.3 65 18.3 74 74 E 5 7 30.11 1020 10 16 0.00 0.00
6:52 pm 18:52 Mostly Cloudy 72 22.2 64 17.8 76 76 SE 9 15 30.12 1020 10 16 0.00 0.00
7:52 pm 19:52 Mostly Cloudy 70 21.1 63 17.2 79 79 SSE 7 11 30.12 1020 10 16 0.00 0.00
8:52 pm 20:52 Mostly Cloudy 70 21.1 63 17.2 79 79 E 3 6 30.14 1021 10 16 0.00 0.00
9:52 pm 21:52 Mostly Cloudy 69 20.6 63 17.2 81 81 ENE 5 7 30.14 1021 10 16 0.00 0.00
10:48 pm 22:48 Cloudy 68 20 64 18 88 88 ENE 3 6 30.13 1020 10 16 0.00 0.00
10:52 pm 22:52 Cloudy 68 20 64 17.8 87 87 ENE 5 7 30.13 1020 10 16 0.00 0.00
11:52 pm 23:52 Cloudy 69 20.6 64 17.8 84 84 E 5 7 30.12 1020 10 16 0.00 0.00

Powered by AerisWeather